This is the latest recevied weather packets stored in our database for station/object VA3BOO. If no packets are shown the sender has not sent any weather packets the latest 10 day(s).
| Time | Temp. | Humidity | Pressure | Rain* | Wind** | Luminosity | Snow |
|---|---|---|---|---|---|---|---|
| 1777933504 | 17.78° C | 50% | 1002.4 hPa | 0 mm | - | 71 W/m² | - |
| 1777933204 | 17.78° C | 49% | 1002.4 hPa | 0 mm | - | 69 W/m² | - |
| 1777932904 | 18.89° C | 46% | 1002.5 hPa | 0 mm | - | 77 W/m² | - |
| 1777932604 | 18.89° C | 45% | 1002.4 hPa | 0 mm | - | 114 W/m² | - |
| 1777932304 | 19.44° C | 46% | 1002.5 hPa | 0 mm | - | 186 W/m² | - |
| 1777932004 | 19.44° C | 44% | 1002.6 hPa | 0 mm | - | 199 W/m² | - |
| 1777931704 | 19.44° C | 45% | 1002.5 hPa | 0 mm | - | 216 W/m² | - |
| 1777931404 | 18.89° C | 44% | 1002.7 hPa | 0 mm | - | 242 W/m² | - |
| 1777931104 | 18.89° C | 46% | 1002.7 hPa | 0 mm | - | 266 W/m² | - |
| 1777930804 | 18.33° C | 45% | 1002.8 hPa | 0 mm | - | 239 W/m² | - |
| 1777930504 | 18.33° C | 47% | 1002.8 hPa | 0 mm | - | 285 W/m² | - |
| 1777930204 | 18.33° C | 46% | 1002.8 hPa | 0 mm | - | 295 W/m² | - |
| 1777929904 | 18.89° C | 45% | 1002.8 hPa | 0 mm | - | 299 W/m² | - |
| 1777929604 | 18.89° C | 46% | 1002.8 hPa | 0 mm | - | 291 W/m² | - |
| 1777929304 | 18.89° C | 45% | 1002.7 hPa | 0 mm | - | 334 W/m² | - |
| 1777929004 | 18.89° C | 45% | 1002.9 hPa | 0 mm | - | 358 W/m² | - |
| 1777928704 | 18.33° C | 46% | 1002.8 hPa | 0 mm | - | 378 W/m² | - |
| 1777928404 | 18.33° C | 47% | 1002.9 hPa | 0 mm | - | 366 W/m² | - |
| 1777928104 | 18.33° C | 46% | 1002.9 hPa | 0 mm | - | 393 W/m² | - |
| 1777927804 | 18.89° C | 46% | 1003.1 hPa | 0 mm | - | 388 W/m² | - |
| 1777927504 | 18.89° C | 46% | 1003 hPa | 0 mm | - | 409 W/m² | - |
| 1777927204 | 18.89° C | 46% | 1003 hPa | 0 mm | - | 436 W/m² | - |
| 1777926904 | 18.89° C | 46% | 1003.2 hPa | 0 mm | - | 473 W/m² | - |
| 1777926604 | 18.33° C | 46% | 1003.3 hPa | 0 mm | - | 490 W/m² | - |
| 1777926304 | 18.33° C | 46% | 1003.3 hPa | 0 mm | - | 500 W/m² | - |
* Rain latest hour (hover to see other rain measurements)
** Current wind speed in m/s (hover to see current wind gust speed)